Regional Weather Roundup
Issued by NWS

Home | Current Version | Previous Version | Text Only | Print | Product List | Glossary Off
Versions: 1 2 3 4 5 6 7 8 9 10 11 12 13 14 15 16 17 18 19 20 21 22 23 24 25 26 27

000
ASUS45 KSLC 302010
RWRUT

UTAH REGIONAL WEATHER ROUNDUP
NATIONAL WEATHER SERVICE SALT LAKE CITY UT
200 PM MDT THU OCT 30 2014

UTZ001>011-023>025-302100-

NORTHERN UTAH

CITY           SKY/WX    TMP DP  RH WIND       PRES   REMARKS
BRIGHAM CITY   SUNNY     64  30  27 CALM      30.22F
HILL AFB       SUNNY     65  31  28 NW6       30.23F
LOGAN          SUNNY     62  32  32 VRB5      30.23F
OGDEN          SUNNY     65  32  29 NW5       30.21F
PROVO AIRPORT  MOSUNNY   61  32  33 CALM      30.23F
SALT LAKE CITY MOSUNNY   65  29  25 CALM      30.20F
VERNAL         SUNNY     58  26  29 CALM      30.33F
WENDOVER       SUNNY     54  27  35 SE6       30.23F
HEBER CITY     SUNNY     63  28  27 CALM      30.25F
WEST JORDAN    SUNNY     66  36  32 CALM      30.22F

$$

UTZ012>022-026-027-302100-

SOUTHERN/CENTRAL UTAH

CITY           SKY/WX    TMP DP  RH WIND       PRES   REMARKS
BLANDING       SUNNY     65  17  15 S8        30.37F
BRYCE CANYON   SUNNY     61  17  18 S15G22    30.37F
CEDAR CITY     SUNNY     68  21  16 CALM      30.22F
DELTA          SUNNY     64  20  18 SW3       30.22F
HANKSVILLE       N/A     68  19  15 NE5       30.29F
MILFORD        SUNNY     69  24  18 S5        30.20F
MOAB/CYNLANDS  SUNNY     66  20  17 E3        30.26F
PRICE          SUNNY     63  17  17 VRB6      30.32F
ST GEORGE      CLEAR     72  25  17 CALM      30.14F
KANAB            N/A     73  21  14 NE13      30.25F

$$

REGIONAL REPORTS     COLORADO/ARIZONA

CITY           SKY/WX    TMP DP  RH WIND       PRES   REMARKS
CRAIG, CO      SUNNY     63  26  24 N6        30.35F
GRAND JUNCTION SUNNY     63  19  18 VRB6      30.28F
RIFLE          SUNNY     63  19  18 CALM      30.30F
MONTROSE       SUNNY     63  22  20 VRB5      30.33F
CORTEZ         SUNNY     64  20  18 SW14      30.31F
PAGE, AZ       SUNNY     67  20  16 VRB5      30.24F
GRAND CANYON   SUNNY     70  18  13 MISG      30.30F
KINGMAN        MOSUNNY   82  32  16 SW7       30.09F
FLAGSTAFF      SUNNY     67  23  19 E8        30.32F

$$

REGIONAL REPORTS    NEVADA/IDAHO/WYOMING

CITY           SKY/WX    TMP DP  RH WIND       PRES   REMARKS
LAS VEGAS, NV  MOSUNNY   78  20  11 SW5       30.02F
ELY            SUNNY     70  16  12 S17G23    30.21F
ELKO           SUNNY     65  25  22 N8        30.16F
POCATELLO, ID  SUNNY     66  32  28 NE7       30.22F
BURLEY         SUNNY     69  34  27 NE9       30.15F
EVANSTON, WY   MOSUNNY   63  22  20 VRB3      30.32F
ROCK SPRINGS   SUNNY     58  23  26 VRB3      30.34F
KEMMERER       SUNNY     57  27  30 S5        30.36F

$$



USA.gov is the U.S. government's official web portal to all federal, state and local government web resources and services.